Regional Weather Roundup
Issued by NWS

Home | Current Version | Previous Version | Graphics & Text | Print | Product List | Glossary On
Versions: 1 2 3 4 5 6 7 8 9 10 11 12 13 14 15 16 17 18 19 20 21 22 23 24 25 26 27 28 29 30 31 32 33 34 35 36 37 38 39 40 41 42 43 44 45 46 47 48 49 50
000
ASUS43 KLSX 211659
RWRMO

WEATHER SUMMARY FOR MISSOURI
NATIONAL WEATHER SERVICE SPRINGFIELD MO
1200 PM CDT THU AUG 21 2014

NOTE: "FAIR" INDICATES FEW OR NO CLOUDS BELOW 12,000 FEET WITH NO
       SIGNIFICANT WEATHER AND/OR OBSTRUCTIONS TO VISIBILITY.
       CURRENT SKY AND/OR WEATHER CONDITIONS ARE NOT AVAILABLE FOR
       CHILLICOTHE AND FARMINGTON.

MOZ001>031-035>038-043-044-053-054-211800-
...NORTHERN AND WESTERN MISSOURI...

CITY           SKY/WX    TMP DP  RH WIND       PRES   REMARKS
KANSAS CTY INT CLOUDY    87  73  62 SW16      29.92S HX  94
KANSAS C DTWN  PTSUNNY   89  72  56 S15       29.91S HX  96
LEE`S SUMMIT   MOSUNNY   87  73  62 S15       29.95S HX  94
ST JOSEPH      CLOUDY    85  74  69 SW13      29.90S HX  92
KIRKSVILLE     MOSUNNY   86  73  65 SW15G21   29.94F HX  93

$$
MOZ066>068-077>081-088>096-101>105-211800-
...SOUTHWEST MISSOURI...

CITY           SKY/WX    TMP DP  RH WIND       PRES   REMARKS
SPRINGFIELD    SUNNY     92  69  47 SW20      30.04S HX  97
JOPLIN         SUNNY     92  71  50 SW20      30.01S HX  98

$$
MOZ032>034-039>042-045>050-055>058-069>072-211800-
...CENTRAL MISSOURI...

CITY           SKY/WX    TMP DP  RH WIND       PRES   REMARKS
COLUMBIA       MOSUNNY   89  74  60 SW15      29.99S HX  98
JEFFERSON CITY MOSUNNY   89  73  59 S9        29.97F HX  97
ROLLA          MOSUNNY   88  73  61 SW12      30.02F HX  95
SEDALIA        MOSUNNY   88  72  58 SW18G25   29.98S HX  94
OSAGE BEACH    MOSUNNY   90  72  55 SW10      30.00F HX  96

$$
MOZ051-052-059>065-211800-
...EAST CENTRAL MISSOURI...

CITY           SKY/WX    TMP DP  RH WIND       PRES   REMARKS
ST LOUIS INTL  PTSUNNY   90  73  57 VRB6      30.01F HX  98
SPIRIT OF STL  PTSUNNY   88  74  63 SW7       29.99F HX  96
ST CHARLES     MOSUNNY   88  73  61 SW9       29.99F HX  95

$$
MOZ072>076-082>087-097>100-106>115-211800-
...SOUTH CENTRAL AND SOUTHEAST MISSOURI...

CITY           SKY/WX    TMP DP  RH WIND       PRES   REMARKS
CAPE GIRARDEAU SUNNY     88  75  65 SW9       30.05F HX  97
FARMINGTON     SUNNY     90  70  51 W9        30.07F HX  95
POPLAR BLUFF   SUNNY     90  71  53 SW9       30.04F HX  96
WEST PLAINS    SUNNY     88  71  57 SW8       30.09S HX  94

$$


USA.gov is the U.S. government's official web portal to all federal, state and local government web resources and services.